Home > Weather > Porta Westfalica > Past weeks

Flag for Germany Weather for the Past 2 Weeks in Porta Westfalica, North Rhine-Westphalia, Germany

Now
50 °F

Passing clouds.


Feels Like: 43 °F
Forecast: 43 / 50 °F
Wind: 23 mph from South

Location: Bueckeburg

Current Time: Feb 7, 2016 at 7:00:17 AM

Latest Report: Feb 7, 2016 at 6:20 AM


Visibility: N/A

Pressure: 29.47 "Hg

Humidity: 62%

Dew point: 37 °F

Location of Porta WestfalicaLocation

Historic Weather in Porta Westfalica — Graph

°F

Porta Westfalica Temperature Yesterday

Maximum temperature yesterday: 54 °F (at 3:20 PM)
Minimum temperature yesterday: 46 °F (at 6:20 AM)
Average temperature yesterday: 50 °F

High & Low Weather Summary for the Past Weeks

 TemperatureHumidityPressure
High54 °F (Jan 25, 1:20 PM)100% (Jan 23, 6:20 AM)30.51 "Hg (Jan 23, 6:20 AM)
Low36 °F (Jan 30, 9:20 PM)57% (Jan 28, 1:20 PM)29.50 "Hg (Feb 7, 4:20 AM)
Average45 °F84%30.02 "Hg
* Reported Jan 23 5:20 AM — Feb 7 5:20 AM, Porta Westfalica, Weather by CustomWeather, © 2016

Note: Actual official high and low records may vary slightly from our data, if they occured in-between our weather recording intervals... More about our weather records

Advertising

Porta Westfalica Weather History for the Previous 24 Hours

 ConditionsComfort  
Time TempWeatherWind HumidityBarometerVisibility
5:20 AM
Sun, Feb 7
50 °FPassing clouds.17 mph62%29.50 "HgN/A
4:20 AM50 °FPassing clouds.17 mph62%29.50 "HgN/A
3:20 AM50 °FCool.18 mph62%29.53 "HgN/A
2:20 AM50 °FCool.20 mph67%29.56 "HgN/A
1:20 AM48 °FCool.16 mph66%29.59 "HgN/A
12:20 AM50 °FPassing clouds.18 mph67%29.62 "HgN/A
11:20 PM
Sat, Feb 6
50 °FPassing clouds.15 mph67%29.62 "HgN/A
10:20 PM50 °FPassing clouds.17 mph67%29.65 "HgN/A
9:20 PM50 °FPassing clouds.20 mph67%29.65 "HgN/A
8:20 PM50 °FPassing clouds.22 mph71%29.68 "HgN/A
7:20 PM50 °FPassing clouds.16 mph71%29.71 "HgN/A
6:20 PM50 °FPassing clouds.16 mph71%29.71 "HgN/A
5:20 PM50 °FPassing clouds.12 mph76%29.74 "HgN/A
4:20 PM52 °FPartly sunny.10 mph72%29.77 "HgN/A
3:20 PM54 °FPartly sunny.8 mph67%29.77 "HgN/A
2:20 PM52 °FScattered clouds.10 mph72%29.80 "HgN/A
1:20 PM52 °FPartly sunny.12 mph72%29.83 "HgN/A
12:20 PM52 °FScattered clouds.10 mph72%29.86 "HgN/A
11:20 AM50 °FScattered clouds.15 mph76%29.86 "HgN/A
10:20 AM48 °FBroken clouds.14 mph76%29.86 "HgN/A
9:20 AM46 °FOvercast.13 mph82%29.89 "HgN/A
8:20 AM46 °FPartly sunny.10 mph82%29.92 "HgN/A
7:20 AM46 °FPartly cloudy.12 mph82%29.92 "HgN/A
Weather by CustomWeather, © 2016

See weather overviewHow to use our weather pages